Location: Berry Creek
(51.8849°N, 111.7341°W)
Time: 01:56:40
(UTC-06:00)

Daily predictions for brighter satellites

Satellite Brightness Start Highest point End
(mag) Time Altitude Azimuth Time Altitude Azimuth Time Altitude Azimuth
Nadezhda 4 Rocket 4.2 00:03:05 22° SSE 00:07:14 60° E 00:13:28 10° NNE
Cosmos 1805 3.2 00:06:16 10° NNW 00:10:15 87° WSW 00:12:06 30° S
SL-27 R/B 3.4 00:11:31 27° ESE 00:11:57 28° ESE 00:14:52 10° NE
Cosmos 1140 Rocket 4.4 00:10:00 24° SE 00:12:15 34° ESE 00:16:57 10° NE
Lacrosse 5 3.0 00:07:35 10° WNW 00:12:30 47° N 00:17:24 10° ENE
Cosmos 1689 Rocket 3.3 00:19:07 27° ESE 00:20:14 37° ENE 00:23:14 10° N
Cosmos 1656 Rocket 3.9 00:15:09 10° NNW 00:20:52 70° ENE 00:24:42 21° SE
Cosmos 2369 Rocket 3.4 00:16:26 10° NW 00:21:21 31° WSW 00:24:43 17° SSW
Cosmos 2208 Rocket 4.0 00:16:08 10° NNW 00:21:22 85° ENE 00:24:21 26° SSE
CZ-4C R/B 2.9 00:22:06 38° SE 00:23:09 67° ENE 00:26:23 10° N
Cosmos 407 Rocket 3.5 00:23:10 17° SSW 00:27:20 83° WNW 00:32:37 10° NNE
Terra 3.7 00:26:32 11° SW 00:29:58 22° W 00:33:41 10° NW
Cosmos 1346 Rocket 4.3 00:28:12 11° SW 00:31:28 32° WNW 00:35:03 10° N
CZ-4B R/B 1.8 00:31:05 33° SE 00:32:29 60° ENE 00:36:08 10° N
Cosmos 1758 4.3 00:33:02 10° NNW 00:36:54 41° W 00:38:53 24° SSW
COSMOS 2406 3.7 00:37:43 27° SSE 00:40:24 45° ESE 00:45:51 10° NE
Cosmos 1954 Rocket 4.0 00:41:33 23° SSW 00:44:55 85° ESE 00:50:16 10° NNE
H-2A R/B 4.1 00:43:32 10° SW 00:46:39 17° W 00:49:49 10° NW
Cosmos 2026 Rocket 4.3 00:44:19 25° SSE 00:47:41 51° E 00:53:31 10° NNE
ATLAS 3B R/B 2.9 00:40:30 10° SW 00:48:12 82° SE 00:55:39 10° NE
Cosmos 1900 4.4 00:45:11 23° SSW 00:48:25 71° SE 00:53:33 10° NE
ATLAS CENTAUR R/B 4.5 00:46:03 10° WNW 00:50:00 22° NNW 00:53:54 10° NE
Aureole 2 4.1 00:47:46 10° NNW 00:51:04 71° WSW 00:51:36 54° S
Cosmos 1340 3.0 00:49:58 37° SSE 00:51:06 52° E 00:54:49 10° NNE
NOSS 2 (A) 4.3 00:51:18 10° NW 00:53:21 58° W 00:53:21 58° W
SL-8 R/B 3.8 00:49:23 10° W 00:54:05 52° SSW 00:58:02 14° ESE
Okean 3 Rocket 3.6 00:52:53 34° S 00:54:43 67° E 00:59:07 10° NNE
Cosmos 1707 3.0 00:55:30 36° SSE 00:56:49 55° E 01:00:41 10° NNE
Cosmos 1741 Rocket 4.2 00:54:38 29° S 00:57:11 58° ESE 01:02:26 10° NNE
Cosmos 2221 2.4 00:59:38 10° N 01:04:02 88° E 01:05:49 35° S
Helios 1A Rocket 3.3 01:00:04 10° NNE 01:04:03 49° E 01:05:24 34° SSE
Cosmos 2084 4.1 01:08:07 10° WNW 01:11:54 35° SW 01:12:44 32° SSW
H-2A R/B 2.3 01:08:23 10° NNE 01:12:17 79° WNW 01:13:49 35° SSW
Meteor 1-24 Rocket 4.2 01:09:15 26° SSE 01:12:30 55° E 01:18:18 10° NNE
Meteor 2-5 Rocket 3.8 01:10:19 27° S 01:13:41 87° E 01:19:32 10° NNE
Cosmos 2082 Rocket 4.4 01:12:28 10° ESE 01:14:20 12° E 01:16:13 10° ENE
Cosmos 1076 Rocket 4.0 01:12:53 32° SSE 01:14:28 48° E 01:18:35 10° NNE
Cosmos 1697 Rocket 4.4 01:10:17 10° NNW 01:15:19 31° NE 01:20:20 10° ESE
USA 238 DEB 3.9 01:10:53 23° SSW 01:15:21 60° SE 01:22:16 10° NE
USA 238 3.9 01:11:01 24° SSW 01:15:26 59° SE 01:22:21 10° NE
Cosmos 1417 Rocket 4.4 01:09:58 10° N 01:16:10 85° W 01:19:40 27° S
ALOS 2 3.1 01:15:07 30° SSW 01:16:52 47° W 01:21:08 10° NNW
Cosmos 1850 Rocket 3.9 01:14:44 28° SSW 01:17:35 84° ESE 01:22:51 10° NNE
Landsat 5 3.7 01:16:35 35° SSW 01:17:52 50° W 01:21:47 10° NNW
COSMOS 2487 2.8 01:17:07 41° SSE 01:17:53 51° ESE 01:21:25 10° NNE
ISS -2.9 01:20:03 44° SE 01:20:03 44° SE 01:22:46 10° E
Cosmos 1607 4.2 01:17:19 27° S 01:20:27 51° ESE 01:26:26 10° NE
Cosmos 1553 Rocket 4.0 01:15:56 10° N 01:22:15 84° E 01:26:06 26° SSE
Cosmos 841 Rocket 4.4 01:20:03 10° NNW 01:25:05 45° ENE 01:29:39 12° SE
Meteor 2-1 Rocket 4.4 01:22:31 10° NNW 01:28:27 73° W 01:31:39 28° S
COSMOS 2455 4.4 01:26:53 10° W 01:32:22 35° NW 01:37:52 10° NNE
Cosmos 1733 4.4 01:32:09 10° NNW 01:35:38 32° W 01:36:52 26° SW
CZ-4C R/B 3.3 01:34:00 24° SSE 01:36:02 30° ESE 01:41:11 10° ENE
NOSS 3-3 (A) 4.4 01:29:08 10° NW 01:36:25 77° SW 01:43:08 15° SE
NOSS 3-3 (C) 4.4 01:29:15 10° NW 01:36:32 77° SW 01:43:18 15° SE
Cosmos 1470 4.4 01:34:51 10° NW 01:38:01 24° W 01:39:20 20° WSW
Lacrosse 4 Rocket 2.7 01:35:04 11° WSW 01:38:44 36° NW 01:42:36 10° NNE
Cosmos 1943 Rocket 3.9 01:36:57 10° WNW 01:40:43 19° W 01:42:49 15° SW
Lacrosse 5 rocket 2.8 01:37:03 10° WNW 01:41:02 41° N 01:45:12 10° ENE
Cosmos 1408 Rocket 3.5 01:39:17 34° S 01:41:12 90° WSW 01:45:43 10° N
Cosmos 1818 3.5 01:36:42 10° NW 01:42:14 89° SW 01:46:26 18° SE
Cosmos 468 Rocket 4.0 01:37:53 10° NNW 01:43:11 71° WSW 01:45:53 29° S
Cosmos 1814 Rocket 4.0 01:39:49 10° NNW 01:45:05 76° WSW 01:47:57 28° SSE
Cosmos 1655 Rocket 4.1 01:41:27 25° SSW 01:45:20 71° WNW 01:51:38 10° N
S3M 4.1 01:40:11 10° NNW 01:46:27 68° W 01:50:01 27° S
SL-27 R/B 4.2 01:45:15 15° WSW 01:47:14 25° NW 01:50:06 10° N
NOSS 3-2 (C) 4.3 01:46:59 25° SSE 01:49:53 37° ESE 01:55:59 10° NE
Cosmos 1689 Rocket 4.3 01:52:11 16° WSW 01:52:37 16° W 01:54:44 10° NW
Cosmos 1140 Rocket 4.4 01:49:58 16° SW 01:53:57 45° WNW 01:59:01 10° NNE
Lacrosse 5 2.4 01:51:01 10° WNW 01:56:03 62° NNE 02:01:05 10° E
Cosmos 1486 Rocket 4.5 01:56:19 27° SSE 01:58:50 49° ESE 02:03:51 10° NNE
Cosmos 2266 Rocket 4.3 01:55:39 24° S 01:59:36 65° E 02:05:59 10° NNE
Cosmos 1378 3.1 01:58:38 38° SSW 02:00:00 81° W 02:03:49 10° N
PSLV R/B 3.9 02:01:20 33° S 02:03:10 75° WSW 02:07:24 10° NNW
Cosmos 2369 3.7 01:58:42 10° NNW 02:04:21 72° WSW 02:07:55 23° SSE
Cosmos 1656 4.0 01:59:05 10° NNW 02:04:48 69° NE 02:10:20 11° SE
Cosmos 1743 Rocket 3.6 02:02:52 32° S 02:04:52 79° E 02:09:20 10° NNE
CZ-4B R/B 3.8 02:04:51 13° WSW 02:05:44 14° W 02:07:43 10° NW
BREEZE-M DEB (TANK) 3.3 01:56:40 10° WSW 02:08:26 65° S 02:11:54 10° E
CZ-2C R/B 2.7 02:03:19 10° NNE 02:08:58 87° WNW 02:12:11 26° SSW
Cosmos 405 Rocket 2.7 02:09:45 35° SSW 02:11:16 73° WNW 02:15:05 10° N
Genesis I 3.5 02:07:39 10° NW 02:11:41 69° NE 02:15:34 10° SE
BREEZE-M TANK 4.5 02:12:03 24° S 02:12:48 24° S 02:16:05 10° ESE
Cosmos 2344 4.3 02:08:27 21° S 02:13:11 43° ESE 02:21:30 10° NE
CZ-2C R/B 3.2 02:10:39 26° S 02:13:49 71° WSW 02:19:31 10° NNW
Cosmos 1908 3.4 02:09:58 10° N 02:13:50 69° ENE 02:15:43 28° SSE
Cosmos 1151 Rocket 3.1 02:09:39 10° N 02:13:57 72° ENE 02:16:20 26° SSE
Cosmos 1437 Rocket 3.4 02:10:26 10° N 02:14:22 53° ENE 02:16:45 21° SE
Cosmos 1766 Rocket 4.3 02:16:38 25° SW 02:18:55 46° WNW 02:23:16 10° N
Cosmos 2228 Rocket 3.8 02:15:26 10° NNW 02:19:33 38° W 02:21:19 27° SW
In-Cosmos 22 4.2 02:19:18 26° S 02:22:33 83° E 02:28:14 10° NNE
Cosmos 1500 Rocket 3.5 02:21:56 30° S 02:24:01 84° E 02:28:22 10° NNE
COSMOS 2406 4.2 02:19:45 12° WSW 02:24:48 42° NW 02:30:17 10° NNE
Aureole 1 Rocket 3.5 02:22:44 10° NNW 02:26:38 61° ENE 02:31:46 10° SE
COS B Rocket 3.5 02:25:06 10° NNE 02:27:20 29° E 02:27:54 26° ESE
ASTEX 1 3.6 02:22:43 10° N 02:27:43 66° E 02:30:48 23° S
Cosmos 2278 4.1 02:23:09 10° NW 02:28:29 44° WSW 02:31:23 25° SSW
Cosmos 1328 Rocket 4.3 02:25:16 10° NNW 02:29:20 39° W 02:31:09 26° SW
Cosmos 1763 Rocket 3.7 02:25:57 10° NNW 02:31:12 59° WSW 02:34:20 24° S
USA 32 4.1 02:29:25 10° N 02:34:44 79° E 02:38:27 20° SSE
NOSS 3-2 (A) 3.6 02:32:26 22° SSW 02:36:42 77° SE 02:43:35 10° NE
Cosmos 1515 Rocket 4.2 02:32:41 10° NNW 02:36:53 42° W 02:38:53 26° SSW
Cosmos 1980 Rocket 2.7 02:31:43 10° NNW 02:37:19 62° NE 02:42:55 10° SE
Cosmos 2151 3.5 02:34:54 23° SSE 02:37:22 53° E 02:41:32 10° NNE
ATLAS 3B R/B 4.0 02:32:24 10° W 02:39:38 44° NNW 02:46:34 10° NE
Cosmos 1300 3.7 02:36:02 10° N 02:39:44 44° ENE 02:42:50 14° SE
Cosmos 1441 Rocket 3.5 02:39:09 26° S 02:41:12 63° E 02:45:09 10° NNE
Cosmos 1354 Rocket 4.3 02:38:42 23° S 02:41:56 61° ESE 02:47:11 10° NNE
Cosmos 540 Rocket 3.6 02:41:39 10° NNW 02:46:51 75° ENE 02:52:02 10° SSE
ERS-2 3.3 02:45:27 10° NNE 02:48:56 36° E 02:51:10 18° SSE
Cosmos 1503 Rocket 4.2 02:47:34 23° S 02:50:58 69° ESE 02:56:17 10° NNE
Cosmos 2058 3.7 02:48:30 18° SSE 02:51:18 45° E 02:55:18 10° NNE
ISS -3.4 02:52:40 10° W 02:55:57 88° S 02:59:14 10° E
Meteor 2-11 Rocket 4.4 02:50:30 10° NNW 02:56:39 82° W 03:01:44 16° S
Cosmos 2082 Rocket 2.4 02:53:33 21° S 02:57:18 64° ESE 03:02:55 10° NE
Cosmos 1328 4.0 02:56:56 23° S 02:59:22 70° E 03:03:21 10° NNE
Cosmos 1697 Rocket 2.7 02:54:07 10° NW 02:59:45 67° WSW 03:05:04 11° SSE
USA 215 3.6 02:53:35 10° ENE 02:59:56 50° SE 03:04:33 19° SSW
Meteor 1-27 4.4 02:54:40 10° NNW 03:00:34 81° ENE 03:06:15 11° SSE
Cosmos 405 3.0 02:58:34 10° NNW 03:02:09 69° W 03:04:10 24° S
NPP 4.3 02:57:21 10° NNE 03:02:37 50° E 03:07:00 15° S
CZ-2D R/B 4.5 03:00:27 10° NE 03:03:26 15° E 03:06:26 10° ESE
USA 238 DEB 4.5 02:59:39 10° WSW 03:06:33 52° NNW 03:13:26 10° NE
USA 238 4.5 02:59:44 10° WSW 03:06:38 52° NNW 03:13:32 10° NE
Cosmos 841 Rocket 4.3 03:02:10 10° NW 03:06:53 34° WSW 03:09:42 20° SSW
Cosmos 1455 4.3 03:04:14 10° NNE 03:07:27 25° ENE 03:10:38 10° SE
SL-14 R/B 4.3 03:05:59 14° SSE 03:08:55 39° E 03:12:32 10° NNE
Cosmos 2360 4.4 03:03:37 10° NNW 03:09:22 75° ENE 03:15:04 10° SE
SL-23 DEB 3.2 03:06:46 10° W 03:09:58 83° S 03:13:18 10° E
Landsat 4 4.5 03:12:35 23° SSW 03:14:16 35° W 03:17:44 10° NNW
Cosmos 1805 Rocket 3.6 03:11:17 19° S 03:14:24 79° E 03:18:52 10° NNE
Cosmos 1833 Rocket 2.9 03:10:56 19° SSW 03:15:02 68° ESE 03:20:39 10° NE
SL-16 R/B 3.6 03:09:10 10° SE 03:15:06 46° ENE 03:21:03 10° N
Lacrosse 4 Rocket 4.2 03:16:56 10° NW 03:18:39 12° NNW 03:20:25 10° N
Cosmos 1538 Rocket 4.2 03:13:46 10° NNW 03:18:59 73° ENE 03:24:13 10° SSE
Cosmos 1437 3.4 03:18:31 18° S 03:20:48 52° E 03:24:04 10° NNE
Lacrosse 5 rocket 1.8 03:16:31 10° WNW 03:20:48 69° NNE 03:25:17 10° ESE
Cosmos 1674 3.3 03:18:46 21° SW 03:20:54 43° WNW 03:24:31 10° N
Cosmos 1707 Rocket 3.7 03:18:04 10° NNW 03:22:24 59° W 03:25:35 17° S
BREEZE-M DEB (TANK) 3.7 03:19:57 10° W 03:22:50 42° SSW 03:30:55 10° SE
CZ-4C R/B 2.5 03:19:10 14° WSW 03:24:01 71° NW 03:30:25 10° NE
Iridium 2 3.9 03:22:26 21° SSW 03:24:46 56° W 03:28:33 10° N
Cosmos 1633 Rocket 3.4 03:22:00 15° S 03:25:38 65° E 03:30:03 10° NNE
ADEOS 4.2 03:23:21 10° NNE 03:28:28 50° E 03:33:31 10° S
SL-08 R/B 3.4 03:25:25 13° S 03:29:36 63° WSW 03:34:30 10° NNW
Cosmos 1666 Rocket 3.5 03:27:24 16° S 03:30:46 85° E 03:35:07 10° NNE
Cosmos 1726 2.1 03:27:53 10° NNW 03:31:35 67° W 03:34:30 15° S
Cosmos 332 Rocket 3.8 03:27:07 10° NNW 03:31:55 67° WSW 03:36:40 10° SSE
Meteor 1-4 Rocket 3.5 03:29:12 10° N 03:32:50 50° ENE 03:36:31 10° SSE
SL-16 R/B 2.7 03:27:45 10° NNW 03:33:27 66° NE 03:39:05 10° SE
EO 1 Del DPAF 4.1 03:30:03 10° SE 03:33:51 51° ENE 03:37:41 10° N
PSLV R/B 4.2 03:32:46 10° N 03:37:18 49° WNW 03:40:49 16° SW
USA 161 1.0 03:36:57 14° SSE 03:38:51 76° ENE 03:41:14 10° N
Lacrosse 5 2.0 03:34:07 10° WNW 03:38:59 50° SW 03:43:52 10° SSE
CBERS-1 4.1 03:34:27 10° NNE 03:39:36 81° ESE 03:44:15 13° SSW
NOSS 3-2 (C) 3.9 03:34:23 11° WSW 03:40:28 66° NW 03:47:28 10° NE
Cosmos 1470 Rocket 4.4 03:36:43 10° SSE 03:41:00 48° E 03:45:17 10° NNE
Cosmos 1271 Rocket 3.1 03:37:12 10° N 03:41:02 63° ENE 03:44:48 10° SSE
Cosmos 1745 Rocket 4.1 03:36:29 13° S 03:42:17 84° W 03:48:41 10° N
Meteor 2-10 4.1 03:37:11 10° NNW 03:42:21 84° ENE 03:47:39 10° SSE
USA 129 3.9 03:42:38 10° E 03:43:07 11° ENE 03:43:36 10° NE
IRS-1C 4.3 03:39:27 10° NNE 03:44:50 75° ESE 03:50:01 11° S
Nadezhda 1 Rocket 4.0 03:39:30 10° NNW 03:45:41 65° W 03:51:43 10° S
Cosmos 1933 Rocket 4.2 03:41:48 10° S 03:46:01 52° E 03:50:19 10° NNE
Aureole 3 Rocket 4.5 03:40:32 10° NNW 03:46:58 82° W 03:55:49 10° S
IRAS Rocket 4.5 03:41:55 10° NNE 03:47:21 60° WNW 03:52:06 13° SW
Meteor 1-11 4.3 03:42:29 13° SSW 03:47:39 80° WNW 03:53:31 10° NNE
Cosmos 2322 Rocket 2.3 03:43:06 10° NNW 03:48:48 86° ENE 03:54:26 10° SSE
ARIANE 5 R/B 3.4 03:45:07 10° NNE 03:50:05 45° E 03:54:57 10° S
UNK 4.3 03:45:56 10° SSE 03:50:26 59° ENE 03:54:57 10° N
CENTAUR R/B 3.0 03:45:04 13° SSW 03:50:33 58° SE 03:57:27 10° NE
Cosmos 773 Rocket 4.1 03:47:46 10° NNW 03:52:56 81° ENE 03:58:05 10° SSE
Okean O Rocket 4.2 03:50:53 10° NE 03:53:51 17° E 03:56:46 10° SE
Cosmos 1626 3.4 03:51:38 10° SSE 03:55:08 38° E 03:58:39 10° NNE
IRS-P3 4.5 03:53:42 10° N 03:58:55 56° WNW 04:03:47 12° SW
Cosmos 1867 4.0 03:58:42 10° WSW 04:04:02 60° NW 04:09:31 10° NE
Resurs 1-4 Rocket 2.9 04:05:46 10° NNE 04:10:57 50° E 04:16:06 10° S
ATLAS CENTAUR R/B 3.7 04:06:45 10° NW 04:11:15 34° NNE 04:15:30 10° E
Sich 1 3.6 04:07:35 12° SSW 04:11:31 46° WNW 04:15:49 10° N
Cosmos 2292 Rocket 3.9 04:08:43 10° SSE 04:11:34 41° E 04:14:52 10° NNE
Cosmos 2221 Rocket 4.3 04:09:30 10° N 04:13:56 57° ENE 04:18:22 10° SSE
Cosmos 1862 Rocket 3.7 04:10:24 10° NNW 04:14:51 62° W 04:19:16 10° S
Cosmos 1300 4.4 04:12:29 10° NW 04:15:12 19° W 04:17:51 10° SW
SME Rocket 4.2 04:10:01 10° SSE 04:16:27 67° ENE 04:20:54 10° NNW
MTI 3.9 04:14:07 10° SSE 04:17:29 88° ENE 04:20:53 10° NNW
Cosmos 1980 Rocket 3.1 04:16:17 10° NW 04:20:58 28° WSW 04:25:39 10° SSW
Cosmos 2360 Rocket 2.8 04:16:31 10° NNW 04:22:08 64° NE 04:27:44 10° SE
ERS-2 3.7 04:19:33 10° N 04:22:36 24° WNW 04:25:38 10° WSW
Cosmos 371 Rocket 4.0 04:20:54 10° NW 04:25:19 35° WSW 04:29:42 10° SSW
Cosmos 2112 Rocket 4.1 04:21:31 10° NNW 04:26:46 85° ENE 04:31:58 10° SSE
Cosmos 2344 4.2 04:19:22 10° WSW 04:27:18 65° NNW 04:37:14 10° NE
Cosmos 2322 4.2 04:21:55 10° NNW 04:27:40 69° ENE 04:33:23 10° SE
BREEZE-M DEB (TANK) 4.0 04:19:47 10° W 04:29:04 48° S 04:32:32 10° ESE
ISS -3.3 04:29:07 10° W 04:32:21 57° SSW 04:35:34 10° ESE
Cosmos 2181 Rocket 4.1 04:27:16 10° NNW 04:33:18 62° W 04:39:23 10° S
Cosmos 1869 3.6 04:30:43 10° NNW 04:34:33 48° W 04:38:22 10° S
Abrixas 3.6 04:34:13 10° SW 04:37:00 31° SSE 04:39:48 10° E
ASTRO F (AKARI) 4.3 04:34:13 10° SSE 04:37:32 80° WSW 04:40:46 10° NNW
UNKNOWN OBJECT B 3.2 04:35:07 10° NNE 04:38:51 61° E 04:42:38 10° S
Cosmos 2082 Rocket 3.4 04:36:46 10° WSW 04:41:48 32° NW 04:46:54 10° NNE
USA 215 3.5 04:36:40 10° ENE 04:43:13 77° NNW 04:49:45 10° WSW
